Regional Weather Roundup
Issued by NWS

Home | Current Version | Previous Version | Graphics & Text | Print | Product List | Glossary On
Versions: 1 2 3 4 5 6 7 8 9 10 11 12 13 14 15 16 17 18 19 20 21 22 23 24 25 26 27 28 29 30 31 32 33 34 35 36 37 38 39 40 41 42 43 44 45 46 47 48 49 50
000
ASUS43 KBIS 132202
RWRND

NORTH DAKOTA REGIONAL WEATHER ROUNDUP
NATIONAL WEATHER SERVICE BISMARCK ND
400 PM CST WED DEC 13 2017

NOTE: "FAIR" INDICATES FEW OR NO CLOUDS BELOW 12,000 FEET WITH NO
SIGNIFICANT WEATHER AND/OR OBSTRUCTIONS TO VISIBILITY.


NDZ001>003-009>011-017-132300-
NORTHWEST NORTH DAKOTA

CITY           SKY/WX    TMP DP  RH WIND       PRES   REMARKS
WILLISTON      CLOUDY    40  25  55 NW18      30.02R
MINOT          CLOUDY    35  27  72 NW16      29.94R
MINOT AFB      CLOUDY    35  26  71 NW18G25   29.93R
$$

NDZ018>021-031>035-040>046-132300-
SOUTHWEST NORTH DAKOTA

CITY           SKY/WX    TMP DP  RH WIND       PRES   REMARKS
BISMARCK       CLOUDY    36  26  67 NW16G23   29.97R
DICKINSON      MOCLDY    37  23  56 W16       29.98R
GARRISON         N/A     34  25  69 NW20      29.95R
HETTINGER ARPT CLOUDY    39  20  46 NW21G28   30.01R
$$

NDZ004>008-012>016-024-026-027-054-132300-
NORTHEAST NORTH DAKOTA

CITY           SKY/WX    TMP DP  RH WIND       PRES   REMARKS
GRAND FORKS    FLURRIES  22  18  85 N21       29.91R WCI   6
GRND FRKS AFB  FLURRIES  23  16  74 N22G29    29.91R WCI   8
DEVILS LAKE    CLOUDY    29  25  85 N16       29.90R WCI  17
$$

NDZ022-023-025-028>030-036>039-047>053-132300-
SOUTHEAST NORTH DAKOTA

CITY           SKY/WX    TMP DP  RH WIND       PRES   REMARKS
FARGO          CLOUDY    25  21  85 N20G26    29.89R WCI  11
JAMESTOWN      CLOUDY    33  29  85 NW14G23   29.88R
$$




USA.gov is the U.S. government's official web portal to all federal, state and local government web resources and services.